Nome, AK

3:41 PM AKDT on August 25, 2016 (GMT -0800)
Nome

Weather History for PAOM - February, 2013

Change the Weather History Date:

Tuesday, February 5, 2013

  Actual Average Record
Temperature  
Mean Temperature 13 °F -  
Max Temperature 22 °F 14 °F 42 °F (1995)
Min Temperature 4 °F -2 °F -42 °F (1947)
Degree Days  
Heating Degree Days 52 59  
Month to date heating degree days 263 296  
Since 1 July heating degree days 7981 7967  
Cooling Degree Days 0    
Month to date cooling degree days 0  
Year to date cooling degree days 0  
Moisture  
Dew Point 11 °F    
Average Humidity 0    
Maximum Humidity 0    
Minimum Humidity 0    
Precipitation  
Precipitation T in 0.03 in 0.23 in (2012)
Month to date precipitation 0.04 0.16  
Year to date precipitation 1.20 1.10  
Snow  
Snow 0.20 in 0.40 in 3.30 in (2003)
Month to date snowfall 0.9 2.1  
Since 1 July snowfall 34.7 46.6  
Snow Depth 27.00 in    
Sea Level Pressure  
Sea Level Pressure 29.64 in    
Wind  
Wind Speed 9 mph (North)    
Max Wind Speed 18 mph    
Max Gust Speed 24 mph    
Visibility 7 miles    
Events Snow    
T = Trace of Precipitation, MM = Missing Value Source: NWS Daily Summary

Daily Weather History Graph

Daily Weather History Graph

Search for Another Location

Airport or City:

Trip Planner

Search our weather history database for the weather conditions in past years. The results will help you decide how hot, cold, wet, or windy it might be!

Date:

Astronomy

Feb. 05, 2013 Rise Set
Actual Time 10:30 AM AKST 6:02 PM AKST
Civil Twilight 9:34 AM AKST 6:58 PM AKST
Nautical Twilight 8:36 AM AKST 7:56 PM AKST
Astronomical Twilight 7:40 AM AKST 8:53 PM AKST
Moon 7:22 AM AKST (2/5) 12:34 PM AKST (2/5)
Length of Visible Light 9h 23m
Length of Day
7h 31m
Waning Crescent, 25% of the Moon is Illuminated
Feb 5
Waning Crescent
Feb 9
New
Feb 17
First Quarter
Feb 25
Full
Mar 4
Last Quarter

Hourly Weather History & Observations

Time (AKST) Temp. Windchill Dew Point Humidity Pressure Visibility Wind Dir Wind Speed Gust Speed Precip Events Conditions
12:53 AM 21.0 °F 8.6 °F 14.0 °F 74% 29.59 in 10.0 mi NE 12.7 mph - N/A   Overcast
1:53 AM 21.9 °F 10.4 °F 15.1 °F 75% 29.59 in 7.0 mi NE 11.5 mph - 0.00 in Snow Light Snow
3:53 AM 19.0 °F 6.1 °F 14.0 °F 81% 29.60 in 7.0 mi North 12.7 mph - 0.00 in Snow Light Snow
4:53 AM 19.0 °F 6.1 °F 14.0 °F 81% 29.60 in 8.0 mi NNE 12.7 mph - 0.00 in Snow Light Snow
5:53 AM 19.0 °F 9.0 °F 15.1 °F 85% 29.60 in 6.0 mi North 8.1 mph - 0.00 in Snow Light Snow
6:53 AM 19.0 °F 10.0 °F 14.0 °F 81% 29.61 in 10.0 mi NNE 6.9 mph - 0.00 in Snow Light Snow
7:53 AM 21.0 °F 8.6 °F 15.1 °F 78% 29.60 in 8.0 mi North 12.7 mph - 0.00 in Snow Light Snow
8:53 AM 19.9 °F 9.3 °F 15.1 °F 81% 29.61 in 4.0 mi North 9.2 mph - 0.00 in Snow Light Snow
9:53 AM 18.0 °F 5.4 °F 15.1 °F 88% 29.61 in 4.0 mi NNE 11.5 mph - 0.00 in Snow Light Snow
10:28 AM 17.6 °F 5.0 °F 14.0 °F 86% 29.61 in 4.0 mi NNE 11.5 mph - 0.00 in Snow Light Snow
10:53 AM 19.9 °F 7.3 °F 14.0 °F 78% 29.62 in 4.0 mi North 12.7 mph - 0.00 in Snow Light Snow
11:53 AM 19.0 °F 7.5 °F 15.1 °F 85% 29.63 in 4.0 mi North 10.4 mph - 0.00 in Snow Light Snow
12:53 PM 19.9 °F 8.6 °F 14.0 °F 78% 29.64 in 3.0 mi North 10.4 mph - 0.00 in Snow Light Snow
1:53 PM 19.0 °F 7.5 °F 14.0 °F 81% 29.65 in 4.0 mi North 10.4 mph - 0.00 in Snow Light Snow
2:53 PM 19.9 °F 7.9 °F 14.0 °F 78% 29.65 in 4.0 mi North 11.5 mph - 0.00 in Snow Light Snow
3:53 PM 18.0 °F 8.7 °F 14.0 °F 84% 29.65 in 3.0 mi North 6.9 mph - 0.00 in Snow Light Snow
4:53 PM 15.1 °F 3.3 °F 8.1 °F 74% 29.66 in 8.0 mi NNE 9.2 mph - 0.00 in   Mostly Cloudy
5:11 PM 15.8 °F 3.4 °F 6.8 °F 68% 29.66 in 10.0 mi North 10.4 mph - N/A   Mostly Cloudy
5:53 PM 14.0 °F - 7.0 °F 74% 29.67 in 10.0 mi Calm Calm - N/A   Overcast
6:53 PM 14.0 °F 5.1 °F 7.0 °F 74% 29.68 in 10.0 mi North 5.8 mph - 0.00 in   Overcast
7:53 PM 12.0 °F 0.5 °F 5.0 °F 73% 29.69 in 10.0 mi North 8.1 mph - N/A   Overcast
8:53 PM 9.0 °F -4.2 °F 1.0 °F 70% 29.71 in 10.0 mi NNW 9.2 mph - N/A   Mostly Cloudy
9:53 PM 7.0 °F -5.7 °F 1.0 °F 77% 29.71 in 10.0 mi NNW 8.1 mph - N/A   Mostly Cloudy
10:53 PM 6.1 °F -0.9 °F -0.9 °F 73% 29.73 in 10.0 mi North 3.5 mph - N/A   Mostly Cloudy
11:53 PM 7.0 °F -4.5 °F -0.9 °F 70% 29.74 in 10.0 mi North 6.9 mph - N/A   Overcast